Tracking 21473 objects as of 19-Sep-2020
HD Live streaming from Space Station
objects crossing your sky now

BREEZE-M DEB

Track BREEZE-M DEB now!
10-day predictions


NORAD ID: 36594
Int'l Code: 2010-025C
Perigee: 284.8 km
Apogee: 16,017.9 km
Inclination: 49.5 °
Period: 290.3 minutes
Semi major axis: 14522 km
RCS: 5.977 m2 (large)
Launch date: June 3, 2010
Source: Commonwealth of Independent States (former USSR) (CIS)
Launch site: TYURATAM MISSILE AND SPACE COMPLEX (TTMTR)

Note: This is SATELLITE DEBRIS
aabbcc
Your satellite tracking list
Your tracking list is empty




NASA's NSSDC Master Catalog

Two Line Element Set (TLE):
1 36594U 10025C   20262.51105662 +.00002455 +00000-0 +33030-3 0  9991
2 36594 049.4841 081.9845 5416878 111.0718 313.4360 04.96075535183648
Source of the keplerian elements: AFSPC